Flag for Brazil Weather past 2 weeks in Vitória, Espírito Santo, Brazil

Now
70 °F

Scattered clouds.


Feels Like: 70 °F
Forecast: 75 / 87 °F
Wind: 3 mph from Southeast

Location: Belo Horizonte Airport

Current Time: Dec 19, 2014 at 8:18:14 AM

Latest Report: Dec 19, 2014 at 8:00 AM


Visibility: N/A

Pressure: 29.98 "Hg

Humidity: 78%

Dew point: 63 °F

Location of VitóriaLocation

Historic Weather in Vitória — Graph

°F

Vitória temperature yesterday

Maximum temperature yesterday: 84 °F (at 5:00 PM)
Minimum temperature yesterday: 68 °F (at 6:00 AM)
Average temperature yesterday: 76 °F

Past Weeks' High & Low Weather Summary

 TemperatureHumidityPressure
High86 °F (Dec 4, 2:00 PM)100% (Dec 17, 6:00 AM)30.15 "Hg (Dec 17, 6:00 AM)
Low61 °F (Dec 17, 6:00 AM)29% (Dec 17, 5:00 PM)29.86 "Hg (Dec 13, 5:00 PM)
Average73 °F69%30.03 "Hg
* Reported Dec 4 7:00 AM — Dec 19 7:00 AM, Vitória, Weather by CustomWeather, © 2014

Note: Actual official high and low records may vary slightly from our data, if they occured in-between our weather recording intervals... More about our weather records

Advertising

Vitória weather history for previous 24 hours

 ConditionsComfort  
Time TempWeatherWind HumidityBarometerVisibility
7:00 AM
Dec 19
70 °FPassing clouds.6 mph73%29.98 "HgN/A
6:00 AM70 °FClear.6 mph73%29.95 "Hg10 mi
5:00 AM68 °FClear.No wind78%29.95 "Hg10 mi
4:00 AM70 °FClear.8 mph73%29.92 "Hg10 mi
3:00 AM72 °FClear.8 mph69%29.95 "Hg10 mi
2:00 AM72 °FClear.8 mph65%29.95 "Hg10 mi
1:00 AM73 °FClear.8 mph61%29.98 "Hg10 mi
12:00 AM73 °FClear.6 mph61%29.98 "Hg10 mi
11:00 PM
Dec 18
75 °FClear.5 mph57%29.95 "Hg10 mi
10:00 PM77 °FClear.8 mph54%29.92 "Hg10 mi
9:00 PM79 °FPassing clouds.6 mph51%29.92 "HgN/A
8:00 PM81 °FScattered clouds.7 mph48%29.89 "HgN/A
7:00 PM82 °FPassing clouds.7 mph42%29.89 "HgN/A
6:00 PM84 °FScattered clouds.7 mph40%29.89 "HgN/A
5:00 PM84 °FScattered clouds.10 mph43%29.89 "HgN/A
4:00 PM82 °FPartly sunny.8 mph45%29.89 "HgN/A
3:00 PM82 °FPartly sunny.6 mph45%29.92 "HgN/A
2:00 PM82 °FPartly sunny.6 mph45%29.95 "HgN/A
1:00 PM81 °FScattered clouds.6 mph45%29.98 "HgN/A
12:00 PM81 °FScattered clouds.5 mph51%30.01 "HgN/A
11:00 AM77 °FScattered clouds.6 mph57%30.04 "HgN/A
10:00 AM75 °FScattered clouds.7 mph61%30.01 "HgN/A
9:00 AM73 °FScattered clouds.8 mph69%30.01 "HgN/A
8:00 AM72 °FPassing clouds.9 mph73%30.01 "HgN/A
Weather by CustomWeather, © 2014

See weather overviewHow to use our weather pages